When you browse on this site, cookies collect data to enhance your experience and personalize the content and advertising you see.
Visit our Privacy Policy to learn more. By continuing to use the site, you agree to this use of cookies and data.
  • In Latvia
  • List of Countries
  • For 7 days
  • Water Temperature
  • Satellite Maps
  • Weather Map
  • Weather Widgets
  • user-avatar
    Login

    Hourly Weather Vevey

    Today, 17 July, Wednesday

    Time Temperature Precipitation Wind Pressure Humidity
    00:00 +18°C° 0 mm 1 mps 720 mmHg 80%
    01:00 +18°C° 0 mm 1 mps 719 mmHg 80%
    02:00 +16°C° 0 mm 1 mps 719 mmHg 80%
    03:00 +16°C° 0 mm 1 mps 719 mmHg 80%
    04:00 +18°C° 0 mm 1 mps 719 mmHg 78%
    05:00 +20°C° 0 mm 1 mps 719 mmHg 75%
    06:00 +19°C° 0 mm 0 mps 719 mmHg 70%
    07:00 +23°C° 0 mm 1 mps 719 mmHg 64%
    08:00 +25°C° 0 mm 1 mps 719 mmHg 59%
    09:00 +26°C° 0 mm 1 mps 719 mmHg 53%
    10:00 +27°C° 0 mm 1 mps 719 mmHg 51%
    11:00 +27°C° 0 mm 1 mps 719 mmHg 50%
    12:00 +28°C° 0 mm 2 mps 719 mmHg 48%
    13:00 +28°C° 0.1 mm 2 mps 719 mmHg 49%
    14:00 +27°C° 0.1 mm 1 mps 719 mmHg 49%
    15:00 +27°C° 0.1 mm 1 mps 719 mmHg 49%
    16:00 +26°C° 0.1 mm 1 mps 718 mmHg 57%
    17:00 +25°C° 0.1 mm 1 mps 718 mmHg 64%
    18:00 +24°C° 0.1 mm 1 mps 718 mmHg 71%
    19:00 +22°C° 0 mm 1 mps 718 mmHg 75%
    20:00 +20°C° 0 mm 1 mps 718 mmHg 79%
    21:00 +19°C° 0 mm 1 mps 718 mmHg 83%
    22:00 +18°C° 0 mm 1 mps 718 mmHg 84%
    23:00 +18°C° 0 mm 1 mps 718 mmHg 84%

    Tomorrow, 18 July, Thursday

    Time Temperature Precipitation Wind Pressure Humidity
    00:00 +18°C° 0 mm 1 mps 718 mmHg 84%
    01:00 +18°C° 0 mm 1 mps 718 mmHg 84%
    02:00 +18°C° 0 mm 1 mps 718 mmHg 83%
    03:00 +18°C° 0 mm 1 mps 718 mmHg 83%
    04:00 +17°C° 0 mm 0 mps 718 mmHg 80%
    05:00 +18°C° 0 mm 0 mps 718 mmHg 78%
    06:00 +19°C° 0 mm 0 mps 718 mmHg 75%
    07:00 +20°C° 0 mm 0 mps 718 mmHg 67%
    08:00 +24°C° 0 mm 1 mps 718 mmHg 58%
    09:00 +26°C° 0 mm 1 mps 719 mmHg 49%
    10:00 +27°C° 0 mm 1 mps 718 mmHg 47%
    11:00 +27°C° 0 mm 1 mps 718 mmHg 45%
    12:00 +28°C° 0 mm 1 mps 718 mmHg 43%
    13:00 +27°C° 0 mm 2 mps 718 mmHg 45%
    14:00 +27°C° 0 mm 2 mps 718 mmHg 47%
    15:00 +27°C° 0 mm 2 mps 718 mmHg 48%
    16:00 +26°C° 0.1 mm 1 mps 718 mmHg 58%
    17:00 +25°C° 0.1 mm 1 mps 718 mmHg 67%
    18:00 +23°C° 0.1 mm 1 mps 719 mmHg 76%
    19:00 +22°C° 0 mm 1 mps 719 mmHg 80%
    20:00 +18°C° 0 mm 0 mps 719 mmHg 84%
    21:00 +17°C° 0 mm 0 mps 720 mmHg 87%
    22:00 +17°C° 0 mm 0 mps 720 mmHg 88%
    23:00 +18°C° 0 mm 1 mps 720 mmHg 89%

    Day after tomorrow, 19 July, Friday

    Time Temperature Precipitation Wind Pressure Humidity
    00:00 +18°C° 0 mm 1 mps 720 mmHg 90%
    01:00 +16°C° 0 mm 1 mps 720 mmHg 91%
    02:00 +16°C° 0 mm 1 mps 720 mmHg 91%
    03:00 +16°C° 0 mm 1 mps 720 mmHg 92%
    04:00 +18°C° 0 mm 1 mps 720 mmHg 90%
    05:00 +17°C° 0 mm 0 mps 720 mmHg 88%
    06:00 +18°C° 0 mm 0 mps 720 mmHg 85%
    07:00 +20°C° 0 mm 0 mps 720 mmHg 77%
    08:00 +24°C° 0 mm 1 mps 720 mmHg 69%
    09:00 +26°C° 0 mm 1 mps 721 mmHg 61%
    10:00 +27°C° 0 mm 1 mps 720 mmHg 58%
    11:00 +27°C° 0 mm 1 mps 720 mmHg 55%
    12:00 +28°C° 0 mm 2 mps 720 mmHg 52%
    13:00 +28°C° 0 mm 1 mps 720 mmHg 52%
    14:00 +28°C° 0 mm 1 mps 720 mmHg 53%
    15:00 +28°C° 0 mm 1 mps 720 mmHg 53%
    16:00 +27°C° 0 mm 1 mps 720 mmHg 59%
    17:00 +26°C° 0 mm 1 mps 720 mmHg 65%
    18:00 +23°C° 0 mm 0 mps 720 mmHg 72%
    19:00 +23°C° 0 mm 1 mps 720 mmHg 76%
    20:00 +21°C° 0 mm 1 mps 720 mmHg 80%
    21:00 +20°C° 0 mm 1 mps 720 mmHg 85%
    22:00 +19°C° 0 mm 1 mps 720 mmHg 85%
    23:00 +19°C° 0 mm 1 mps 720 mmHg 85%

    20 July, Saturday

    Time Temperature Precipitation Wind Pressure Humidity
    00:00 +19°C° 0 mm 1 mps 720 mmHg 85%
    01:00 +19°C° 0 mm 1 mps 720 mmHg 85%
    02:00 +19°C° 0 mm 1 mps 720 mmHg 84%
    03:00 +18°C° 0 mm 1 mps 720 mmHg 83%
    04:00 +20°C° 0 mm 1 mps 720 mmHg 80%
    05:00 +21°C° 0 mm 1 mps 720 mmHg 77%
    06:00 +22°C° 0 mm 1 mps 720 mmHg 74%
    07:00 +24°C° 0 mm 1 mps 721 mmHg 66%
    08:00 +27°C° 0 mm 1 mps 721 mmHg 57%
    09:00 +29°C° 0 mm 1 mps 722 mmHg 48%
    10:00 +30°C° 0 mm 2 mps 721 mmHg 46%
    11:00 +30°C° 0 mm 2 mps 721 mmHg 43%
    12:00 +31°C° 0 mm 3 mps 721 mmHg 40%
    13:00 +31°C° 0 mm 3 mps 721 mmHg 39%
    14:00 +31°C° 0 mm 3 mps 721 mmHg 39%
    15:00 +32°C° 0 mm 4 mps 721 mmHg 38%
    16:00 +30°C° 0 mm 3 mps 721 mmHg 47%
    17:00 +28°C° 0 mm 2 mps 721 mmHg 57%
    18:00 +27°C° 0 mm 1 mps 722 mmHg 66%
    19:00 +26°C° 0 mm 1 mps 722 mmHg 66%
    20:00 +25°C° 0 mm 1 mps 722 mmHg 67%
    21:00 +24°C° 0 mm 1 mps 723 mmHg 67%
    22:00 +23°C° 0 mm 1 mps 723 mmHg 68%
    23:00 +22°C° 0 mm 1 mps 723 mmHg 70%

    21 July, Sunday

    Time Temperature Precipitation Wind Pressure Humidity
    00:00 +21°C° 0 mm 1 mps 723 mmHg 72%
    01:00 +21°C° 0 mm 1 mps 723 mmHg 72%
    02:00 +21°C° 0 mm 1 mps 723 mmHg 72%
    03:00 +21°C° 0 mm 1 mps 723 mmHg 73%
    04:00 +22°C° 0 mm 1 mps 723 mmHg 71%
    05:00 +23°C° 0 mm 1 mps 724 mmHg 70%
    06:00 +24°C° 0 mm 1 mps 724 mmHg 69%
    07:00 +26°C° 0 mm 1 mps 724 mmHg 63%
    08:00 +28°C° 0 mm 1 mps 725 mmHg 57%
    09:00 +30°C° 0 mm 1 mps 725 mmHg 51%
    10:00 +31°C° 0 mm 1 mps 725 mmHg 49%
    11:00 +31°C° 0 mm 1 mps 725 mmHg 46%
    12:00 +32°C° 0 mm 1 mps 724 mmHg 43%
    13:00 +32°C° 0 mm 1 mps 724 mmHg 43%
    14:00 +32°C° 0 mm 1 mps 724 mmHg 42%
    15:00 +32°C° 0 mm 1 mps 724 mmHg 41%
    16:00 +31°C° 0 mm 1 mps 724 mmHg 49%
    17:00 +30°C° 0 mm 1 mps 724 mmHg 56%
    18:00 +28°C° 0 mm 1 mps 724 mmHg 64%
    19:00 +27°C° 0 mm 1 mps 724 mmHg 65%
    20:00 +25°C° 0 mm 1 mps 724 mmHg 67%
    21:00 +23°C° 0 mm 1 mps 724 mmHg 69%
    22:00 +23°C° 0 mm 1 mps 724 mmHg 68%
    23:00 +23°C° 0 mm 1 mps 724 mmHg 68%

    22 July, Monday

    Time Temperature Precipitation Wind Pressure Humidity
    00:00 +22°C° 0 mm 1 mps 724 mmHg 68%
    01:00 +22°C° 0 mm 1 mps 724 mmHg 67%
    02:00 +22°C° 0 mm 1 mps 724 mmHg 66%
    03:00 +22°C° 0 mm 1 mps 723 mmHg 65%
    04:00 +23°C° 0 mm 1 mps 723 mmHg 65%
    05:00 +24°C° 0 mm 1 mps 724 mmHg 66%
    06:00 +23°C° 0 mm 0 mps 724 mmHg 66%
    07:00 +27°C° 0 mm 1 mps 724 mmHg 59%
    08:00 +29°C° 0 mm 1 mps 724 mmHg 52%
    09:00 +32°C° 0 mm 1 mps 724 mmHg 46%
    10:00 +32°C° 0 mm 1 mps 723 mmHg 44%
    11:00 +33°C° 0 mm 1 mps 723 mmHg 42%
    12:00 +34°C° 0 mm 1 mps 723 mmHg 40%
    13:00 +34°C° 0 mm 1 mps 723 mmHg 41%
    14:00 +34°C° 0 mm 1 mps 723 mmHg 41%
    15:00 +34°C° 0 mm 1 mps 722 mmHg 41%
    16:00 +32°C° 0.3 mm 1 mps 722 mmHg 50%
    17:00 +31°C° 0.3 mm 1 mps 722 mmHg 58%
    18:00 +29°C° 0.3 mm 1 mps 722 mmHg 67%
    19:00 +28°C° 0.2 mm 1 mps 722 mmHg 70%
    20:00 +26°C° 0.2 mm 1 mps 722 mmHg 74%
    21:00 +24°C° 0.2 mm 1 mps 722 mmHg 77%
    22:00 +24°C° 0.1 mm 1 mps 722 mmHg 78%
    23:00 +23°C° 0.1 mm 1 mps 722 mmHg 78%
    Show more